Regional Weather Roundup
Issued by NWS

Home | Current Version | Previous Version | Text Only | Print | Product List | Glossary On
Versions: 1 2 3 4 5 6 7 8 9 10 11 12 13 14 15 16 17 18 19 20 21 22 23 24 25 26 27
000
ASUS42 KFFC 050903
RWRGA
WEATHER ROUNDUP FOR GEORGIA
NATIONAL WEATHER SERVICE PEACHTREE CITY GA
500 AM EDT THU MAY 05 2016

NOTE: "FAIR" INDICATES FEW OR NO CLOUDS BELOW 12,000 FEET WITH NO
SIGNIFICANT WEATHER AND/OR OBSTRUCTIONS TO VISIBILITY.

* = USE WITH CAUTION. THE STATIONS MARKED WITH AN ASTERISK MAY NOT
REPORT WEATHER SUCH AS PRECIPITATION, FOG, OR THUNDER AND ARE NOT
QUALITY CONTROLLED BY NWS.

THE REMARK "TC" DENOTES TEMPERATURE READING IN DEGREES CELSIUS.

GAZ001>058-051000-
NORTH GEORGIA

CITY           SKY/WX    TMP DP  RH WIND       PRES   REMARKS
ATLANTA        CLEAR     51  47  86 W10       29.73S
ATHENS         CLEAR     51  48  89 NW8       29.68F
CHAMBLEE       CLEAR     51  48  89 NW7       29.73S
PEACHTREE CITY CLEAR     51  49  92 W6        29.76R
ROME           CLEAR     50  45  83 W7        29.77R
WEST ATLANTA   CLEAR     51 N/A N/A W5        29.74S
GAINESVILLE    CLEAR     49  45  86 W7        29.71S
CARTERSVILLE   CLEAR     49  48  97 CALM      29.77R


CITY           SKY/WX    TMP DP  RH WIND       PRES   REMARKS
DALTON*        CLEAR     46  46 100 CALM      29.76S
MARIETTA       PTCLDY    50  48  93 W10       29.73S
CANTON*        CLEAR     46  43  87 NW10      29.74S
BLAIRSVILLE*     N/A    N/A N/A N/A MISG      29.72R
$$

GAZ059>098-102>109-051000-
CENTRAL GEORGIA

CITY           SKY/WX    TMP DP  RH WIND       PRES   REMARKS
AUGUSTA-BUSH   CLEAR     56  49  77 NW9       29.63R
AUGUSTA-DANIEL CLEAR     57  46  66 NW10      29.64R
COLUMBUS       CLEAR     55  51  86 NW7       29.77R
MACON          CLEAR     53  50  89 W8        29.72S
ROBINS AFB     CLEAR     54  50  86 NW9       29.71S


CITY           SKY/WX    TMP DP  RH WIND       PRES   REMARKS
LAGRANGE*      CLEAR     53  53 100 NW5       29.78R
SYLVANIA*      CLEAR     55  52  89 NW5       29.64S
MILLEDGEVILLE* CLEAR     55  48  76 W8        29.70S
$$

GAZ099>101-110>166-051000-
SOUTH GEORGIA

CITY           SKY/WX    TMP DP  RH WIND       PRES   REMARKS
SAVANNAH       CLEAR     55  49  80 W6        29.64S
VALDOSTA       CLEAR     58  51  78 CALM      29.73R
ALMA           CLEAR     59  50  72 W8        29.69R
ST SIMONS      CLEAR     60  50  69 W9        29.66S
FT STEWART     CLEAR     59  48  67 W6        29.63R
ALBANY         CLEAR     58  50  75 NW6       29.77S
MOODY AFB      CLEAR     60  49  67 NW7       29.71R
BRUNSWICK      CLEAR     63  54  72 W5        29.67F


CITY           SKY/WX    TMP DP  RH WIND       PRES   REMARKS
BAINBRIDGE*    CLEAR     59  52  77 W6        29.77S
MOULTRIE*      CLEAR     61  50  67 W5        29.75S
VIDALIA*       CLEAR     55  50  82 W8        29.69R
WAYCROSS*      CLEAR     58  50  75 W9        29.69S
DOUGLAS*       CLEAR     61  50  67 NW7       29.72R
$$




USA.gov is the U.S. government's official web portal to all federal, state and local government web resources and services.